Regional Weather Roundup
Issued by NWS

Home | Current Version | Previous Version | Text Only | Print | Product List | Glossary Off
Versions: 1 2 3 4 5 6 7 8 9 10 11 12 13 14 15 16 17 18 19 20 21 22 23 24 25 26 27 28 29 30 31 32 33 34 35 36 37 38 39 40 41 42 43 44 45 46 47 48 49 50

000
ASUS45 KCYS 182310
RWRWY

WYOMING REGIONAL WEATHER ROUNDUP
NATIONAL WEATHER SERVICE CHEYENNE WY
500 PM MDT THU SEP 18 2014

NOTE:  "FAIR" INDICATES FEW OR NO CLOUDS BELOW 12,000 FEET
WITH NO SIGNIFICANT WEATHER AND/OR OBSTRUCTIONS TO VISIBILITY.

WYZ001-190000-
YELLOWSTONE NATIONAL PARK

CITY           SKY/WX    TMP DP  RH WIND       PRES   REMARKS
LK YELLOWSTONE   N/A     58  51  78 CALM      30.08S
W YELLOWSTONE  NOT AVBL

$$
WYZ002>013-054>058-071-098>099-190000-
NORTHERN WYOMING

CITY           SKY/WX    TMP DP  RH WIND       PRES   REMARKS
JACKSON        PTSUNNY   63  55  77 CALM      29.98F
CODY             N/A    N/A N/A N/A MISG        N/A
GREYBULL       MOSUNNY   82  42  24 NW10      29.77F
WORLAND        MOSUNNY   82  45  27 N7        29.77F
SHERIDAN       PTSUNNY   77  53  43 S7        29.79F
BUFFALO        PTSUNNY   76  48  37 N10       29.88F
GILLETTE       CLOUDY    80  48  32 N14       29.82R
HULETT         FAIR      84  50  30 MISG      29.82
NEWCASTLE      FAIR      88  37  16 SE8       29.79

$$
WYZ014>020-022>026-101>103-190000-
CENTRAL WYOMING

CITY           SKY/WX    TMP DP  RH WIND       PRES   REMARKS
BIG PINEY      PTSUNNY   79  39  23 W13       29.99F
PINEDALE       PTCLDY    77  36  22 SW9G16    30.00F
DUBOIS         FAIR      72  36  26 N16       29.98S
LANDER         MOSUNNY   88  35  15 S13G21    29.83F
RIVERTON       SUNNY     88  27  11 SW17G23   29.84F
CASPER         SUNNY     89  29  11 SW15      29.87F
DOUGLAS        SUNNY     91  32  12 W12       29.85F

$$
WYZ021-027>030-104>119-190000-
SOUTHERN WYOMING

CITY           SKY/WX    TMP DP  RH WIND       PRES   REMARKS
EVANSTON       SUNNY     80  39  23 SW20G25   30.01F
KEMMERER       PTCLDY    79  34  19 W9G24     30.02S
FORT BRIDGER   MOCLDY    83  35  18 W7G16     30.02F
ROCK SPRINGS   MOSUNNY   82  33  17 S20G25    29.97F
DIXON          FAIR      84  33  15 W10       30.03F
RAWLINS        SUNNY     82  24  12 SW15G25   30.02F
SARATOGA       FAIR      77  36  22 CALM      30.04F
LARAMIE        SUNNY     81  31  16 S14       30.06F
CHEYENNE       SUNNY     84  28  13 S10       30.00F
TORRINGTON     SUNNY     89  50  26 SE7       29.82F
PINE BLUFFS    FAIR      88  32  13 S8G16     29.93F

$$


USA.gov is the U.S. government's official web portal to all federal, state and local government web resources and services.